World > North America > United States > Iowa > Clive   City of Clive, IA

Clive, IA Hourly Weather Updates

Feedback E-mail the Weather

Quick Clicks

Clive, IA Weather Maps

°F °C°F °C
Clive Weather Map
UTC Time: 6/14/2024, 15:52
Your Time:

Clive, IA Regional Weather

Expires:202406141600;;006626
ASUS43 KEAX 141515
RWREAX

WEATHER ROUNDUP FOR EASTERN KANSAS AND NORTHWEST MISSOURI
NATIONAL WEATHER SERVICE KANSAS CITY/PLEASANT HILL MO
1000 AM CDT FRI JUN 14 2024


IAZ060-094-KSZ022-034>040-054-083-096-NEZ052-066-093-141600- 
...KANSAS...SOUTHEAST NEBRASKA AND IOWA...
  
CITY           SKY/WX    TMP DP  RH WIND       PRES   REMARKS
TOPEKA         SUNNY     82  68  62 E9        30.05R                  
MANHATTAN      SUNNY     80  70  71 E8        30.05R                  
EMPORIA        MOSUNNY   82  72  71 CALM      30.04R                  
OTTAWA         SUNNY     82  72  69 MISG      30.04R                  
CHANUTE        SUNNY     86  71  60 S15       30.00F HX  91           
SALINA         MOSUNNY   79  65  62 CALM      30.05F                  
WICHITA        MOSUNNY   82  70  66 S6        30.02S                  
OMAHA          MOSUNNY   77  62  59 CALM      30.10S                  
LINCOLN        MOSUNNY   81  56  42 E8        30.10S                  
FALLS CITY     SUNNY     82  59  45 E14       30.07F                  
LAMONI         SUNNY     80  60  50 NE5       30.10R                  
DES MOINES     MOSUNNY   81  55  40 NE8       30.09R                  

$$

  

SKY/WX - Weather  TMP - Temperature  DP - Dew Point  RH - Humidity
WIND - Wind Direction/Speed PRES - Barometric Pressure VSB - Visibility
WCI - Wind Chill Index E13G22 Wind - East Wind 13 mph/Gusts of 22 mph

Trending Headlines

Trending Entertainment Headlines

Clive Radar Loop

Use the map search tool if you want to place a location marker on the radar map...

Clive Quick Facts

National Two Day Weather Forecast


E-mail the Clive Weather Forecast

Voice your opinion or tell us about page issues...